User: anonymous   Login
Location: Unspecified
(0.0000°N, 0.0000°E)
Time: 13:47:01
(UTC+00:00)
Language:

UFO 10 - Orbit

View from above orbital plane
View from above orbital plane
View from above satellite
View from above satellite

Ground track
Ground track

The orbit data is extracted from the following two-line orbital elements,

1 25967U 99063A   20047.73333626 -.00000196  00000-0  00000+0 0  9998
2 25967   7.7288  36.0021 0004234 327.5501  24.4619  1.00273718 74153
Epoch (UTC): 16 February 2020 17:36:00
Eccentricity: 0.0004234
inclination: 7.7288°
perigee height: 35768 km
apogee height: 35803 km
right ascension of ascending node: 36.0021°
argument of perigee: 327.5501°
revolutions per day: 1.00273718
mean anomaly at epoch: 24.4619°
orbit number at epoch: 7415

The dashed part of the orbit path shows where the satellite is in the earth's shadow,  

DLR